DELTA 1 DEB, 10823

Orbit data source: Space-Track

DELTA 1 DEB, 10823 is space debris in SSO originally from a launch on Thu, 29 Jul 1976 UTC launched from the Air Force Western Test Range (AFWTR). Debris objects in space refer to the collection of defunct objects orbiting the Earth. Examples of debris include non-operational satellites, rocket bodies, and fragments generated from explosions, collisions, or faulty payload assembly.

Loading next visibility...
Identifier
10823, 1976-077BT
Orbit
SSO
Country
Flag of USUS
Related business
Manufacturer
Unknown
Mission
Spacecraft
Bus & Motor
Unknown
Mass
Unknown
Launch date (UTC)
1976-07-29 (50 years ago)
Launch vehicle
Unknown
Launch site
Air Force Western Test Range (AFWTR)
Object type
Payload
Rocket body
Debris
Shape & HBR
Unknown shape, 0.1 m
Radar Cross Section
Medium (>0.1 m² and <1 m²)

Expand to show TLE details & history
Last TLE update: 18 hours ago

TLE from 18 hours ago
0 DELTA 1 DEB
1 10823U 76077BT  26104.12216199  .00000079  00000-0  88274-3 0  9993
2 10823 101.9884  58.9516 0045471 145.7432 226.4972 12.43801453255328
Epoch: 2026-04-14T02:55Z
TLE epoch observation values (Epoch: 2026-04-14T02:55:54.795Z)
Latitude
11.56225°
Longitude
170.19264°
Altitude
1,517.054 km
Speed
7.096 km/s
True Right ascension
03h 45m 53s
True Declination
11° 30' 05"
Sunlit
Object was in daylight at epoch
Visualization orbit readout
Latitude
Unknown
Longitude
Unknown
Altitude
Unknown
Speed
Unknown
Apparent Right ascension
Unknown
Apparent Declination
Unknown
Sunlit
N/A
Visualization observer readout
Local Sidereal Time
03:32:10
Azimuth
Unknown
Elevation
Unknown
Doppler factor
Unknown
Orbital elements
Apogee altitude
1,523.867 km
Perigee altitude
1,452.33 km
Semi-major axis
7,866.235 km
Eccentricity
0.00455
Inclination
101.9884°
RAAN
58.9516°
Arg. of periapsis
145.7432°
True anomaly
226.12073°
Mean anomaly
226.4972°
Eccentric anomaly
226.30882°
Mean motion
3.11095 °/min
Orbital period
115.72 mins
BSTAR
0.00088274
Loading maneuver chart data...
Computing Atmospheric mass density...
Loading historical data...
Loading historical data...
Loading historical data...
Loading historical data...
Loading historical data...
Loading historical data...
Loading historical data...

Documentation

Showing up to 5 results
|